[[{"header":{"parameterUnit":"m.s-1","parameterCategory":2,"la1":30.2991,"la2":30.254,"lo1":-89.0895,"lo2":-89.0444,"dy":0.0017,"dx":0.0017,"nx":28,"ny":28,"refTime":"2024-10-18T09:00:00:Z","depth":"0","parameterNumber":2,"parameterNumberName":"U-component_of_CURRENTS"},"data":[0,0,0,0,0,0,0,0,0,0,0,0,0,0,0,0,0,0,0,0,0,0,0,0,0,0,0,0,0,0,0,0,0,0,0,0,0,0,0,0,0,0,0,0,0,0,0,0,0,0,0,0,0,0,0,0,0,0,0.2798,0.2799,0,0.2832,0.2832,0.2832,0.2821,0.282,0.282,0.282,0.2804,0.2804,0.2804,0,0,0,0,0,0,0,0,0,0,0,0,0,0.2734,0.2735,0.2798,0.2799,0.28,0.2832,0.2832,0.2832,0.2821,0.282,0.282,0.2819,0.2804,0.2804,0.2804,0,0,0,0,0,0,0,0,0,0,0,0,0,0.2761,0.2735,0.2798,0.28,0.2801,0.2831,0.2832,0.2832,0.2821,0.282,0.282,0.2819,0.2804,0.2804,0.2804,0.2816,0,0,0.2804,0.2804,0,0,0,0,0,0,0,0,0.2759,0.2763,0.2799,0.28,0.2801,0.2824,0.2804,0.2825,0.2821,0.281,0.282,0.2819,0.2809,0.2808,0.2812,0.2816,0.2815,0.2804,0.2804,0.2804,0.2804,0,0,0,0,0,0,0,0.2758,0.2762,0.2808,0.28,0.2801,0.2803,0.2806,0.2808,0.2809,0.2811,0.2811,0.282,0.2808,0.2812,0.2812,0.2815,0.2804,0.2804,0.2804,0.2804,0.2869,0.2871,0,0,0,0,0,0,0.2761,0.276,0.2807,0.2809,0.2782,0.2805,0.2808,0.2815,0.281,0.281,0.2821,0.282,0.2813,0.2812,0.2811,0.285,0.2804,0.2804,0.2804,0.2867,0.287,0.2872,0,0,0,0,0,0,0.2759,0.2764,0.2806,0.2788,0.2794,0.2807,0.2815,0.2816,0.2824,0.2819,0.2817,0.2828,0.2812,0.2811,0.2828,0.2848,0.2804,0.2804,0.2865,0.2868,0.2871,0.2912,0,0,0,0,0,0,0.2757,0.2763,0.2769,0.2788,0.2795,0.2829,0.2816,0.2817,0.2832,0.2831,0.2825,0.2823,0.2811,0.2828,0.2828,0.2847,0.2804,0.2863,0.2867,0.287,0.2909,0.2916,0.2922,0,0,0,0,0,0.2754,0.2764,0.2769,0.2775,0.2802,0.283,0.2834,0.2839,0.2833,0.2842,0.2844,0.2823,0.2849,0.2829,0.2829,0.2849,0.2862,0.2866,0.2869,0.2906,0.2915,0.2922,0,0,0,0,0,0,0.2737,0.2765,0.277,0.2787,0.2811,0.283,0.284,0.2845,0.2855,0.2854,0.2841,0.284,0.2868,0.2857,0.2836,0.2881,0.2853,0.2857,0.2881,0.289,0.2896,0.2898,0.2804,0,0,0,0,0,0.2739,0.2751,0.2781,0.2794,0.2808,0.2826,0.2838,0.2846,0.2859,0.2863,0.286,0.2866,0.2884,0.2884,0.2896,0.2913,0.2919,0.2929,0.2936,0.2942,0.2945,0.2984,0.2994,0.2884,0.2884,0.2884,0,0,0.2735,0.2753,0.2759,0.2792,0.2809,0.2833,0.2831,0.2856,0.2876,0.286,0.288,0.2892,0.2898,0.2925,0.2935,0.2914,0.2978,0.2947,0.2951,0.2951,0.2989,0.3,0.3009,0.2887,0.2887,0.2886,0,0,0.2738,0.2754,0.2768,0.2792,0.2827,0.2842,0.2853,0.288,0.2891,0.2917,0.2921,0.2947,0.2956,0.2973,0.2981,0.3033,0.302,0.3037,0.3061,0.3099,0.3108,0.3116,0.3142,0.3152,0.3031,0.3031,0.3031,0,0.2737,0.2758,0.2777,0.2802,0.2824,0.2848,0.2873,0.2893,0.2921,0.2939,0.2927,0.2981,0.2981,0.3029,0.3047,0.3047,0.3063,0.3025,0.3107,0.3115,0.3122,0.3147,0.3157,0.3034,0.3034,0.3033,0.3033,0,0.2754,0.2774,0.2787,0.2824,0.2849,0.2878,0.2912,0.2937,0.2951,0.2972,0.3024,0.3039,0.3067,0.3079,0.3074,0.3135,0.3128,0.3117,0.3082,0.3136,0.3158,0.3169,0.3037,0.3037,0.3036,0.3035,0,0,0.2758,0.279,0.2797,0.2815,0.2866,0.2888,0.2929,0.2976,0.3013,0.3037,0.3084,0.3119,0.3131,0.3143,0.3153,0.3182,0.3246,0.3169,0.317,0.3187,0.3328,0.3312,0.3321,0.325,0.3252,0.3253,0.3324,0,0.2773,0.28,0.2822,0.2861,0.2886,0.2922,0.2959,0.3004,0.3046,0.3097,0.3128,0.3177,0.3156,0.3181,0.3208,0.3247,0.3274,0.3227,0.328,0.3282,0.3254,0.3333,0.3241,0.3296,0.3333,0.3335,0.3336,0,0.2801,0.2813,0.2837,0.2882,0.2898,0.2922,0.2994,0.3035,0.3113,0.315,0.3202,0.3229,0.3287,0.326,0.3335,0.3307,0.332,0.3338,0.3341,0.3317,0.3285,0.3248,0.3312,0.3255,0.3351,0.335,0.3349,0,0.2801,0.2838,0.2848,0.2865,0.2912,0.2934,0.2968,0.3046,0.3097,0.3191,0.3238,0.3303,0.335,0.3378,0.3408,0.3379,0.349,0.3451,0.3447,0.3445,0.3373,0.3362,0.3378,0.3503,0.3503,0.3503,0.3502,0,0.2821,0.2842,0.2843,0.2853,0.2883,0.2926,0.2982,0.3039,0.3131,0.3193,0.326,0.3326,0.3384,0.3446,0.3448,0.3491,0.3521,0.3472,0.3473,0.3386,0.3375,0.3325,0.3294,0.3505,0.3505,0.3504,0.3504,0,0.2831,0.2833,0.285,0.2871,0.2882,0.2905,0.2977,0.302,0.3119,0.3207,0.3239,0.3368,0.3452,0.3502,0.3575,0.3552,0.35,0.3588,0.3479,0.3466,0.3381,0.3356,0.3246,0.3127,0.3588,0.3588,0.3588,0,0.2834,0.2837,0.2842,0.2838,0.2845,0.288,0.2904,0.3004,0.3059,0.3221,0.3258,0.3391,0.3468,0.3587,0.3598,0.3626,0.351,0.3538,0.346,0.3387,0.3359,0.3215,0.311,0.3381,0.3379,0.3378,0.3377,0,0.2826,0.282,0.2813,0.2801,0.2809,0.2833,0.2879,0.2923,0.304,0.3124,0.3238,0.3323,0.3474,0.3494,0.3565,0.3559,0.3383,0.3511,0.3467,0.3235,0.3047,0.2929,0.3319,0.3366,0.3367,0.3368,0.3368,0.3369,0.2796,0.2776,0.2743,0.2734,0.2747,0.2753,0.2742,0.2815,0.2885,0.2975,0.3132,0.3222,0.3367,0.3468,0.3442,0.3379,0.3314,0.3281,0.3269,0.3138,0.298,0.3348,0.3375,0.3377,0.3378,0.3378,0.3379,0,0.2702,0.2679,0.2673,0.2632,0.2609,0.2654,0.2686,0.2659,0.2684,0.2845,0.2931,0.3096,0.3162,0.3247,0.3282,0.3169,0.2984,0.3077,0.2857,0.2771,0.3145,0.3096,0.3027,0.3027,0.3027,0.3027,0.3027,0.3027,0.2639,0.2573,0.2564,0.248,0.2467,0.2396,0.2388,0.2395,0.2476,0.2564,0.267,0.2807,0.3083,0.3219,0.3148,0.3052,0.2785,0.2676,0.262,0.2925,0.2942,0.2958,0.2905,0.2796,0.2796,0.212,0.2115,0.2112]},{"header":{"parameterUnit":"m.s-1","parameterCategory":2,"la1":30.2991,"la2":30.254,"lo1":-89.0895,"lo2":-89.0444,"dy":0.0017,"dx":0.0017,"nx":28,"ny":28,"refTime":"2024-10-18T09:00:00:Z","depth":"0","parameterNumber":3,"parameterNumberName":"V-component_of_CURRENTS"},"data":[0,0,0,0,0,0,0,0,0,0,0,0,0,0,0,0,0,0,0,0,0,0,0,0,0,0,0,0,0,0,0,0,0,0,0,0,0,0,0,0,0,0,0,0,0,0,0,0,0,0,0,0,0,0,0,0,0,0,0.0038,0.0037,0,-0.0044,-0.0045,-0.0046,-0.0102,-0.0102,-0.0103,-0.0103,-0.0209,-0.0212,-0.0214,0,0,0,0,0,0,0,0,0,0,0,0,0,0.0081,0.0081,0.0038,0.0037,0.0036,-0.0043,-0.0045,-0.0046,-0.0102,-0.0102,-0.0103,-0.0103,-0.0208,-0.0211,-0.0214,0,0,0,0,0,0,0,0,0,0,0,0,0,0.0036,0.0081,0.0038,-0.0,-0.0004,-0.0043,-0.0045,-0.0046,-0.0102,-0.0102,-0.0103,-0.0103,-0.0207,-0.0211,-0.0215,-0.0231,0,0,-0.0227,-0.0228,0,0,0,0,0,0,0,0,0.0039,0.0034,0.0006,0.0003,-0.0002,-0.0062,-0.0068,-0.0109,-0.0102,-0.0067,-0.0103,-0.0103,-0.0161,-0.0168,-0.0185,-0.0236,-0.024,-0.0227,-0.0229,-0.0231,-0.0232,0,0,0,0,0,0,0,0.0042,0.0037,0.0004,0.0006,0.0,-0.0035,-0.0041,-0.0077,-0.0112,-0.007,-0.0074,-0.008,-0.0163,-0.0181,-0.0188,-0.0242,-0.0227,-0.023,-0.0233,-0.0234,-0.0315,-0.0315,0,0,0,0,0,0,0.0059,0.004,0.0006,0.0002,0.002,-0.0035,-0.0042,-0.0044,-0.0112,-0.0122,-0.0079,-0.0082,-0.0174,-0.0183,-0.0192,-0.0201,-0.0231,-0.0235,-0.0237,-0.0315,-0.0315,-0.0315,0,0,0,0,0,0,0.0061,0.0057,0.001,0.002,0.0012,-0.0034,-0.0036,-0.0045,-0.006,-0.0118,-0.0129,-0.0084,-0.0175,-0.0186,-0.0218,-0.0206,-0.0236,-0.024,-0.0315,-0.0315,-0.0315,-0.0227,0,0,0,0,0,0,0.0062,0.0059,0.0063,0.0022,0.0012,-0.0003,-0.0036,-0.0046,-0.0062,-0.0066,-0.0126,-0.0136,-0.0176,-0.0212,-0.0222,-0.0212,-0.0243,-0.0316,-0.0315,-0.0315,-0.023,-0.0224,-0.0219,0,0,0,0,0,0.0064,0.0078,0.0064,0.0059,0.002,-0.0002,-0.001,-0.0046,-0.0062,-0.0062,-0.0104,-0.0134,-0.0217,-0.0214,-0.0226,-0.0217,-0.0316,-0.0315,-0.0315,-0.0233,-0.0225,-0.0219,0,0,0,0,0,0,0.0097,0.0072,0.0056,0.006,0.0035,-0.0011,-0.0013,-0.0038,-0.0072,-0.0075,-0.0132,-0.0146,-0.017,-0.0207,-0.0202,-0.0241,-0.0271,-0.0273,-0.0205,-0.0198,-0.0193,-0.0169,-0.0246,0,0,0,0,0,0.0108,0.0112,0.0078,0.0081,0.0074,0.0032,0.0018,-0.0004,-0.0039,-0.0054,-0.0096,-0.014,-0.0178,-0.0197,-0.0237,-0.0255,-0.0288,-0.0258,-0.0252,-0.0247,-0.0237,-0.028,-0.0276,-0.0313,-0.0313,-0.0313,0,0,0.012,0.0108,0.0108,0.0088,0.0066,0.0066,0.0023,0.0013,0.001,-0.006,-0.0075,-0.0121,-0.0179,-0.0201,-0.0215,-0.0229,-0.0253,-0.0246,-0.0241,-0.0234,-0.0279,-0.0275,-0.0272,-0.0313,-0.0313,-0.0313,0,0,0.0152,0.0139,0.0154,0.0141,0.012,0.0096,0.0099,0.0061,0.0042,0.002,-0.003,-0.0065,-0.0124,-0.016,-0.0187,-0.0172,-0.0221,-0.0188,-0.0137,-0.0178,-0.0175,-0.0173,-0.0202,-0.0203,-0.0183,-0.0183,-0.0183,0,0.0166,0.0182,0.0153,0.0165,0.0164,0.0117,0.0134,0.0109,0.0064,0.0056,0.0028,-0.0053,-0.0102,-0.013,-0.0127,-0.0157,-0.0187,-0.0156,-0.0169,-0.0167,-0.0167,-0.0198,-0.02,-0.0179,-0.0179,-0.018,-0.018,0,0.0208,0.022,0.0231,0.0233,0.0227,0.0234,0.0203,0.0193,0.0164,0.0134,0.0101,0.0029,-0.0016,-0.0041,-0.0082,-0.0098,-0.0122,-0.0156,-0.0181,-0.0157,-0.0192,-0.0196,-0.0173,-0.0174,-0.0175,-0.0176,0,0,0.0232,0.0258,0.026,0.0279,0.0266,0.0268,0.0271,0.0259,0.0268,0.0211,0.0209,0.0134,0.0095,0.0061,0.0003,-0.0036,-0.0058,-0.0086,-0.009,-0.0103,-0.0141,-0.0155,-0.0161,-0.0095,-0.0095,-0.0095,-0.0164,0,0.0271,0.0324,0.0319,0.0361,0.0385,0.0356,0.0362,0.0345,0.032,0.0306,0.023,0.0202,0.0133,0.0113,0.0064,-0.0028,-0.0066,-0.0036,-0.0172,-0.0175,-0.0182,-0.0165,-0.0142,-0.0201,-0.0168,-0.0168,-0.0169,0,0.0307,0.0342,0.0401,0.0435,0.0442,0.0454,0.0467,0.0471,0.0439,0.0419,0.0379,0.0316,0.0253,0.0187,0.0053,0.0075,-0.002,-0.0097,-0.0102,-0.0147,-0.0197,-0.0223,-0.021,-0.0369,-0.0176,-0.0175,-0.0175,0,0.0344,0.0393,0.0449,0.046,0.049,0.0504,0.0515,0.0504,0.0527,0.0495,0.0502,0.0409,0.037,0.0239,0.0082,0.0067,-0.0069,-0.0113,-0.0214,-0.0216,-0.0239,-0.0242,-0.0385,-0.0206,-0.0205,-0.0205,-0.0205,0,0.0385,0.0424,0.0471,0.0502,0.0561,0.0557,0.0612,0.0607,0.0618,0.0658,0.0566,0.0573,0.038,0.0277,0.012,-0.0049,-0.004,-0.0197,-0.0233,-0.0208,-0.0207,-0.0382,-0.0492,-0.0208,-0.0207,-0.0207,-0.0206,0,0.0413,0.0444,0.0512,0.0565,0.0583,0.0625,0.0689,0.0731,0.0728,0.0777,0.0773,0.0697,0.0569,0.0372,0.0164,0.0014,-0.0255,-0.0222,-0.0171,-0.0201,-0.0442,-0.0548,-0.0751,-0.0825,-0.034,-0.0341,-0.0341,0,0.0436,0.0478,0.0567,0.0614,0.0639,0.0704,0.0753,0.0782,0.0843,0.086,0.0895,0.0792,0.0748,0.0445,0.0164,-0.0102,-0.0278,-0.0269,-0.03,-0.0445,-0.0591,-0.0669,-0.0721,-0.0297,-0.0297,-0.0297,-0.0298,0,0.0486,0.0518,0.058,0.0679,0.0744,0.0827,0.0904,0.0971,0.1011,0.1059,0.1105,0.1072,0.0794,0.055,0.0178,-0.0024,-0.0387,-0.0281,-0.0451,-0.0582,-0.0658,-0.0748,-0.0259,-0.0299,-0.0299,-0.0299,-0.0299,-0.0299,0.0528,0.0576,0.0661,0.0749,0.083,0.0934,0.1012,0.111,0.1219,0.1303,0.127,0.1268,0.0906,0.0415,0.0119,-0.0392,-0.0418,-0.054,-0.0658,-0.0724,-0.0794,-0.0299,-0.0371,-0.0371,-0.0371,-0.0371,-0.0371,0,0.0585,0.0638,0.0725,0.0835,0.0927,0.096,0.1104,0.1194,0.1335,0.1427,0.1478,0.132,0.0867,0.0383,-0.0292,-0.0672,-0.0824,-0.0899,-0.1008,-0.1046,-0.0616,-0.061,-0.0712,-0.0712,-0.0712,-0.0711,-0.0711,-0.0711,0.0618,0.0706,0.0745,0.0894,0.097,0.1099,0.1184,0.1323,0.1432,0.1548,0.1574,0.1562,0.1205,0.001,-0.0825,-0.1039,-0.1319,-0.1403,-0.1544,-0.1255,-0.123,-0.1206,-0.1226,-0.1454,-0.1456,-0.1894,-0.1899,-0.1903]}],[{"header":{"parameterUnit":"m.s-1","parameterCategory":2,"la1":30.2991,"la2":30.254,"lo1":-89.0895,"lo2":-89.0444,"dy":0.0017,"dx":0.0017,"nx":28,"ny":28,"refTime":"2024-10-18T09:00:00:Z","depth":"2","parameterNumber":2,"parameterNumberName":"U-component_of_CURRENTS"},"data":[0,0,0,0,0,0,0,0,0,0,0,0,0,0,0,0,0,0,0,0,0,0,0,0,0,0,0,0,0,0,0,0,0,0,0,0,0,0,0,0,0,0,0,0,0,0,0,0,0,0,0,0,0,0,0,0,0,0,0.2696,0.2697,0,0.2728,0.2728,0.2728,0.2724,0.2724,0.2724,0.2724,0.2717,0.2718,0.2718,0,0,0,0,0,0,0,0,0,0,0,0,0,0.2636,0.2637,0.2696,0.2697,0.2697,0.2728,0.2728,0.2728,0.2724,0.2724,0.2724,0.2723,0.2717,0.2718,0.2718,0,0,0,0,0,0,0,0,0,0,0,0,0,0.2662,0.2637,0.2696,0.2701,0.2702,0.2728,0.2728,0.2729,0.2724,0.2724,0.2724,0.2723,0.2717,0.2718,0.2718,0.2726,0,0,0.2718,0.2718,0,0,0,0,0,0,0,0,0.266,0.2663,0.27,0.2701,0.2702,0.2724,0.2705,0.2727,0.2725,0.2713,0.2724,0.2723,0.2718,0.2718,0.2722,0.2726,0.2726,0.2718,0.2718,0.2718,0.2718,0,0,0,0,0,0,0,0.2658,0.2662,0.2706,0.27,0.2702,0.2704,0.2707,0.2709,0.2715,0.2714,0.2714,0.2723,0.2718,0.2722,0.2722,0.2726,0.2718,0.2718,0.2718,0.2718,0.2787,0.2789,0,0,0,0,0,0,0.2661,0.2661,0.2705,0.2707,0.2683,0.2705,0.2708,0.2715,0.2715,0.2716,0.2723,0.2723,0.2722,0.2721,0.2721,0.2766,0.2718,0.2718,0.2718,0.2785,0.2787,0.2789,0,0,0,0,0,0,0.2659,0.2664,0.2704,0.2687,0.2692,0.2707,0.2715,0.2716,0.2728,0.2723,0.2723,0.2735,0.2721,0.2721,0.2741,0.2764,0.2718,0.2718,0.2783,0.2786,0.2788,0.2833,0,0,0,0,0,0,0.2657,0.2663,0.2671,0.2687,0.2693,0.2727,0.2715,0.2717,0.2735,0.2735,0.2733,0.2732,0.2721,0.2741,0.2741,0.2763,0.2719,0.2781,0.2784,0.2787,0.2829,0.2837,0.2843,0,0,0,0,0,0.2655,0.2665,0.2671,0.2677,0.2703,0.2728,0.2731,0.2738,0.2736,0.2746,0.2752,0.2732,0.2762,0.2743,0.2742,0.2765,0.2779,0.2783,0.2787,0.2826,0.2835,0.2843,0,0,0,0,0,0,0.2643,0.2667,0.2673,0.269,0.2713,0.2728,0.2741,0.2747,0.2759,0.2761,0.275,0.275,0.2781,0.277,0.2749,0.2798,0.2769,0.2773,0.2799,0.2808,0.2815,0.2816,0.2719,0,0,0,0,0,0.2645,0.2659,0.2684,0.2699,0.2712,0.2729,0.2741,0.2751,0.2764,0.277,0.277,0.2778,0.2797,0.2799,0.2812,0.283,0.2835,0.2848,0.2855,0.2861,0.2865,0.2902,0.2912,0.2802,0.2802,0.2802,0,0,0.2644,0.2661,0.2668,0.2698,0.2715,0.2737,0.2735,0.2762,0.2782,0.2767,0.2792,0.2805,0.2811,0.284,0.2852,0.2831,0.2897,0.2866,0.2871,0.2871,0.2907,0.2917,0.2927,0.2805,0.2804,0.2804,0,0,0.2651,0.2667,0.2682,0.2703,0.2737,0.2751,0.2762,0.2789,0.2802,0.283,0.2834,0.2862,0.2874,0.289,0.2898,0.2952,0.2939,0.2958,0.2983,0.302,0.3029,0.3036,0.3061,0.307,0.2953,0.2953,0.2953,0,0.2652,0.2673,0.2691,0.2715,0.2735,0.2759,0.2783,0.2804,0.2833,0.2852,0.2843,0.2898,0.29,0.2947,0.2966,0.2966,0.2981,0.2947,0.3028,0.3036,0.3043,0.3065,0.3076,0.2955,0.2955,0.2955,0.2955,0,0.2671,0.2692,0.2705,0.2741,0.2764,0.2792,0.2825,0.2851,0.2869,0.2889,0.2943,0.2958,0.2988,0.3,0.2995,0.3056,0.3049,0.3037,0.3002,0.3056,0.3077,0.3087,0.2959,0.2958,0.2957,0.2957,0,0,0.2673,0.271,0.2716,0.2735,0.2783,0.2803,0.2845,0.2891,0.2928,0.2955,0.3002,0.304,0.3054,0.3066,0.3076,0.3104,0.3167,0.3092,0.3093,0.3108,0.3246,0.3221,0.3229,0.3171,0.3173,0.3174,0.3241,0,0.2689,0.2721,0.2741,0.2781,0.2805,0.284,0.2877,0.2921,0.2963,0.3014,0.3046,0.3096,0.3078,0.3106,0.3132,0.3168,0.3195,0.315,0.3198,0.3199,0.3164,0.324,0.2976,0.3012,0.325,0.3251,0.3253,0,0.2711,0.2728,0.2759,0.2804,0.2819,0.2844,0.2915,0.2955,0.303,0.3068,0.3121,0.3149,0.3207,0.3182,0.3255,0.3229,0.3241,0.3257,0.326,0.3226,0.3192,0.2997,0.302,0.3268,0.3267,0.3266,0.3265,0,0.2708,0.2749,0.2768,0.2784,0.2835,0.2858,0.2892,0.2968,0.3018,0.3111,0.3158,0.3222,0.327,0.3297,0.3326,0.3299,0.3403,0.3365,0.3352,0.3349,0.3129,0.3104,0.3415,0.3415,0.3415,0.3414,0.3414,0,0.2722,0.2743,0.2764,0.2777,0.2811,0.2853,0.291,0.2966,0.3056,0.3116,0.3183,0.3246,0.3304,0.3362,0.3363,0.3399,0.3433,0.3377,0.3375,0.3139,0.3116,0.3334,0.3324,0.3417,0.3416,0.3416,0.3415,0,0.2719,0.2735,0.276,0.2796,0.2809,0.2835,0.2909,0.2951,0.3049,0.3134,0.3166,0.3288,0.3367,0.3415,0.3482,0.3456,0.3485,0.3483,0.3204,0.317,0.3392,0.3383,0.3472,0.3472,0.3472,0.3472,0.3472,0,0.2715,0.2724,0.2757,0.2761,0.2774,0.2814,0.284,0.2938,0.299,0.3146,0.3181,0.3307,0.3371,0.3477,0.3462,0.3478,0.3513,0.3238,0.3139,0.3413,0.3403,0.3394,0.3386,0.2858,0.2853,0.2849,0.2845,0,0.2698,0.271,0.2719,0.2725,0.2742,0.2768,0.2815,0.2857,0.2971,0.3049,0.3152,0.3225,0.3341,0.3255,0.3307,0.3271,0.3214,0.3157,0.3518,0.29,0.2844,0.2831,0.2841,0.2808,0.2812,0.2815,0.2817,0.2818,0.267,0.2664,0.2663,0.2665,0.2685,0.269,0.2679,0.2744,0.2807,0.287,0.3018,0.3025,0.307,0.3023,0.2939,0.2871,0.3089,0.2924,0.2932,0.2946,0.2879,0.2828,0.2775,0.2778,0.2781,0.2784,0.2786,0,0.2591,0.2587,0.2593,0.2573,0.2549,0.2598,0.2627,0.2583,0.2593,0.269,0.2746,0.2557,0.253,0.2559,0.2414,0.2438,0.2363,0.2321,0.218,0.2222,0.2258,0.215,0.1856,0.1852,0.1849,0.1846,0,0,0.2542,0.25,0.2495,0.2419,0.2415,0.234,0.233,0.2301,0.2325,0.2286,0.2266,0.2434,0.2521,0.2154,0.2119,0.1956,0.2064,0.1882,0.264,0.2519,0.255,0.2634,0.2521,0,0,0,0,0]},{"header":{"parameterUnit":"m.s-1","parameterCategory":2,"la1":30.2991,"la2":30.254,"lo1":-89.0895,"lo2":-89.0444,"dy":0.0017,"dx":0.0017,"nx":28,"ny":28,"refTime":"2024-10-18T09:00:00:Z","depth":"2","parameterNumber":3,"parameterNumberName":"V-component_of_CURRENTS"},"data":[0,0,0,0,0,0,0,0,0,0,0,0,0,0,0,0,0,0,0,0,0,0,0,0,0,0,0,0,0,0,0,0,0,0,0,0,0,0,0,0,0,0,0,0,0,0,0,0,0,0,0,0,0,0,0,0,0,0,0.0139,0.0139,0,0.0063,0.0062,0.0061,0.0007,0.0007,0.0006,0.0006,-0.0095,-0.0097,-0.0099,0,0,0,0,0,0,0,0,0,0,0,0,0,0.0179,0.0179,0.014,0.0139,0.0138,0.0063,0.0062,0.0061,0.0007,0.0006,0.0006,0.0006,-0.0094,-0.0097,-0.01,0,0,0,0,0,0,0,0,0,0,0,0,0,0.0137,0.0179,0.014,0.0103,0.0099,0.0064,0.0062,0.0061,0.0007,0.0006,0.0006,0.0006,-0.0093,-0.0097,-0.01,-0.0113,0,0,-0.0111,-0.0113,0,0,0,0,0,0,0,0,0.014,0.0136,0.0109,0.0105,0.0101,0.0045,0.0039,0.0002,0.0007,0.004,0.0006,0.0005,-0.0049,-0.0056,-0.0071,-0.0118,-0.0122,-0.0111,-0.0114,-0.0115,-0.0116,0,0,0,0,0,0,0,0.0143,0.0138,0.0108,0.0108,0.0103,0.007,0.0064,0.0032,-0.0002,0.0037,0.0034,0.0028,-0.0052,-0.0068,-0.0074,-0.0123,-0.0111,-0.0114,-0.0117,-0.0118,-0.0193,-0.0193,0,0,0,0,0,0,0.0159,0.0141,0.011,0.0106,0.0121,0.007,0.0063,0.0062,-0.0002,-0.0011,0.0028,0.0025,-0.0061,-0.007,-0.0078,-0.0087,-0.0115,-0.0118,-0.012,-0.0193,-0.0193,-0.0193,0,0,0,0,0,0,0.016,0.0157,0.0113,0.0122,0.0115,0.0071,0.007,0.0061,0.0046,-0.0008,-0.0019,0.0022,-0.0062,-0.0073,-0.0102,-0.0092,-0.012,-0.0123,-0.0193,-0.0193,-0.0193,-0.0112,0,0,0,0,0,0,0.0162,0.0158,0.0162,0.0124,0.0115,0.0101,0.007,0.006,0.0044,0.004,-0.0017,-0.0027,-0.0063,-0.0096,-0.0106,-0.0097,-0.0126,-0.0193,-0.0193,-0.0193,-0.0115,-0.0109,-0.0104,0,0,0,0,0,0.0163,0.0176,0.0162,0.0158,0.0122,0.0102,0.0095,0.006,0.0044,0.0043,0.0004,-0.0025,-0.0101,-0.0099,-0.011,-0.0102,-0.0194,-0.0193,-0.0193,-0.0117,-0.011,-0.0104,0,0,0,0,0,0,0.0193,0.0171,0.0155,0.0159,0.0135,0.0094,0.009,0.0066,0.0034,0.0031,-0.0022,-0.0035,-0.0058,-0.0092,-0.0088,-0.0124,-0.0152,-0.0154,-0.0091,-0.0085,-0.008,-0.0058,-0.0129,0,0,0,0,0,0.0203,0.0207,0.0176,0.0178,0.0171,0.0132,0.0119,0.0098,0.0065,0.005,0.0011,-0.0031,-0.0065,-0.0083,-0.012,-0.0137,-0.017,-0.014,-0.0135,-0.013,-0.0121,-0.0163,-0.016,-0.0191,-0.0191,-0.0191,0,0,0.0213,0.0202,0.0203,0.0185,0.0164,0.0165,0.0123,0.0113,0.0111,0.0045,0.0031,-0.0013,-0.0066,-0.0087,-0.01,-0.0113,-0.0138,-0.013,-0.0125,-0.0118,-0.0162,-0.0159,-0.0156,-0.0191,-0.0191,-0.0191,0,0,0.0243,0.023,0.0245,0.0233,0.0212,0.0191,0.0193,0.0157,0.0139,0.0118,0.0072,0.0038,-0.0016,-0.0049,-0.0074,-0.006,-0.0108,-0.0075,-0.0029,-0.0069,-0.0067,-0.0065,-0.0096,-0.0098,-0.0071,-0.0071,-0.0071,0,0.0255,0.0271,0.0244,0.0256,0.0255,0.021,0.0227,0.0203,0.0161,0.0153,0.0125,0.0049,0.0003,-0.0021,-0.0019,-0.0046,-0.0076,-0.0046,-0.0061,-0.006,-0.0059,-0.0092,-0.0094,-0.0067,-0.0068,-0.0068,-0.0068,0,0.0296,0.0307,0.0317,0.032,0.0314,0.0321,0.0293,0.0282,0.0253,0.0226,0.0194,0.0126,0.0083,0.006,0.0023,0.0006,-0.0018,-0.0048,-0.0072,-0.0051,-0.0087,-0.0091,-0.0062,-0.0063,-0.0064,-0.0065,0,0,0.032,0.0343,0.0345,0.0363,0.0352,0.0354,0.0357,0.0347,0.0354,0.0299,0.0296,0.0226,0.0187,0.0156,0.0102,0.0063,0.0038,0.0015,0.0011,-0.0005,-0.0046,-0.0062,-0.0068,0.0004,0.0003,0.0003,-0.0069,0,0.0358,0.0406,0.0402,0.0442,0.0465,0.0438,0.0444,0.0429,0.0404,0.039,0.0317,0.0291,0.0225,0.0205,0.0157,0.0068,0.0029,0.0061,-0.0073,-0.0076,-0.0085,-0.0073,-0.0042,-0.0103,-0.0074,-0.0075,-0.0075,0,0.0395,0.0426,0.0479,0.0513,0.052,0.0532,0.0545,0.0549,0.0518,0.0499,0.0458,0.0398,0.0336,0.0273,0.0141,0.0164,0.0071,-0.0004,-0.0009,-0.0054,-0.01,-0.0123,-0.0113,-0.0083,-0.0083,-0.0082,-0.0081,0,0.0432,0.0477,0.0528,0.0538,0.0565,0.058,0.059,0.058,0.0603,0.0571,0.0576,0.0485,0.0446,0.0318,0.0165,0.0151,0.0016,-0.0024,-0.0126,-0.0128,-0.0142,-0.0145,-0.0117,-0.0117,-0.0117,-0.0116,-0.0116,0,0.0474,0.0512,0.0549,0.0576,0.0633,0.063,0.0683,0.0678,0.0689,0.0726,0.0637,0.0641,0.0454,0.0351,0.02,0.0032,0.0041,-0.0111,-0.0147,-0.0113,-0.0112,-0.013,-0.0131,-0.0119,-0.0119,-0.0118,-0.0118,0,0.0508,0.0531,0.0593,0.0637,0.0654,0.0694,0.0756,0.0797,0.0793,0.0839,0.0835,0.0758,0.063,0.0439,0.0234,0.009,-0.0078,-0.0142,-0.0084,-0.0112,-0.0204,-0.02,-0.026,-0.0261,-0.0262,-0.0263,-0.0264,0,0.0534,0.057,0.0642,0.0684,0.0707,0.0769,0.0817,0.0846,0.0904,0.0918,0.095,0.0845,0.0796,0.0497,0.0226,-0.0034,-0.0077,-0.0187,-0.0212,-0.0189,-0.0219,-0.0213,-0.0207,-0.02,-0.02,-0.02,-0.02,0,0.0586,0.0606,0.0657,0.0744,0.0806,0.0887,0.0962,0.1025,0.1064,0.1107,0.1143,0.1104,0.083,0.0581,0.022,0.004,-0.0144,-0.0197,-0.0191,-0.0165,-0.0138,-0.0165,-0.016,-0.0201,-0.0201,-0.0201,-0.0201,-0.0201,0.0623,0.0663,0.0728,0.081,0.0887,0.0988,0.1064,0.1154,0.1255,0.1317,0.1283,0.1229,0.095,0.0498,0.0189,-0.0149,-0.0138,-0.026,-0.0257,-0.0255,-0.0232,-0.0208,-0.0279,-0.0279,-0.028,-0.028,-0.028,0,0.0671,0.0714,0.0791,0.0889,0.0978,0.1012,0.1151,0.1229,0.1354,0.14,0.1428,0.1165,0.0891,0.0555,0.0066,-0.0218,-0.0241,-0.0316,-0.0277,-0.0273,-0.0271,-0.0247,-0.0299,-0.03,-0.0301,-0.0302,0,0,0.0696,0.0769,0.0804,0.0945,0.1017,0.1141,0.1223,0.1337,0.1405,0.1455,0.1427,0.1376,0.0985,0.0634,0.0252,-0.0031,-0.0094,-0.0091,-0.0044,0.0051,0.0057,-0.0204,-0.016,0,0,0,0,0]}],[{"header":{"parameterUnit":"m.s-1","parameterCategory":2,"la1":30.2991,"la2":30.254,"lo1":-89.0895,"lo2":-89.0444,"dy":0.0017,"dx":0.0017,"nx":28,"ny":28,"refTime":"2024-10-18T09:00:00:Z","depth":"4","parameterNumber":2,"parameterNumberName":"U-component_of_CURRENTS"},"data":[0,0,0,0,0,0,0,0,0,0,0,0,0,0,0,0,0,0,0,0,0,0,0,0,0,0,0,0,0,0,0,0,0,0,0,0,0,0,0,0,0,0,0,0,0,0,0,0,0,0,0,0,0,0,0,0,0,0,0.1781,0.1781,0,0.1846,0.1846,0.1847,0.1902,0.1902,0.1903,0.1904,0.197,0.1971,0.1972,0,0,0,0,0,0,0,0,0,0,0,0,0,0.1695,0.1696,0.178,0.1781,0.1782,0.1846,0.1846,0.1847,0.1901,0.1902,0.1903,0.1904,0.1969,0.197,0.1972,0,0,0,0,0,0,0,0,0,0,0,0,0,0.1741,0.1696,0.178,0.1819,0.1823,0.1845,0.1846,0.1847,0.1901,0.1902,0.1904,0.1905,0.1969,0.197,0.1972,0.1958,0,0,0.1976,0.1977,0,0,0,0,0,0,0,0,0.1739,0.1744,0.1812,0.1816,0.1821,0.1868,0.184,0.1885,0.1901,0.1869,0.1904,0.1905,0.1936,0.194,0.1947,0.1961,0.1964,0.1977,0.1978,0.1978,0.1979,0,0,0,0,0,0,0,0.1735,0.1742,0.1804,0.1813,0.1818,0.183,0.1838,0.1849,0.1894,0.1872,0.1877,0.1887,0.1938,0.1946,0.1949,0.1965,0.1977,0.1978,0.1979,0.1979,0.2093,0.2095,0,0,0,0,0,0,0.1731,0.1739,0.1802,0.1806,0.1784,0.1831,0.1839,0.185,0.1894,0.1902,0.1886,0.1889,0.1942,0.1947,0.1952,0.2042,0.1978,0.198,0.1981,0.2091,0.2093,0.2095,0,0,0,0,0,0,0.1728,0.1736,0.18,0.1775,0.1785,0.1831,0.1843,0.1851,0.1899,0.1905,0.1913,0.193,0.1944,0.195,0.2002,0.2041,0.198,0.1982,0.2088,0.2091,0.2094,0.2155,0,0,0,0,0,0,0.1726,0.1734,0.1759,0.1775,0.1786,0.1838,0.1842,0.1852,0.1901,0.1908,0.1944,0.1949,0.1945,0.2,0.2004,0.2042,0.1983,0.2085,0.209,0.2093,0.215,0.2159,0.2168,0,0,0,0,0,0.1722,0.1744,0.176,0.1769,0.1812,0.1839,0.1846,0.1881,0.1903,0.1928,0.1961,0.195,0.2028,0.2003,0.2007,0.2046,0.2084,0.2088,0.2093,0.2146,0.2158,0.2167,0,0,0,0,0,0,0.1723,0.1752,0.177,0.1802,0.1832,0.185,0.1882,0.1903,0.1948,0.1968,0.1973,0.198,0.2043,0.2038,0.201,0.2092,0.2056,0.2061,0.2095,0.2106,0.2114,0.2113,0.1984,0,0,0,0,0,0.1732,0.1761,0.1785,0.1818,0.1835,0.1867,0.1891,0.1915,0.1947,0.197,0.1996,0.2028,0.2057,0.2078,0.2101,0.214,0.2139,0.217,0.2179,0.2186,0.219,0.2224,0.2235,0.2111,0.2111,0.2111,0,0,0.1743,0.1765,0.1783,0.1821,0.185,0.1878,0.1885,0.1934,0.1968,0.1968,0.2038,0.2063,0.2077,0.2128,0.2154,0.2132,0.2225,0.2192,0.2198,0.2198,0.223,0.2242,0.2252,0.2114,0.2113,0.2113,0,0,0.1764,0.1799,0.1826,0.1851,0.1901,0.1916,0.1939,0.1981,0.2017,0.2073,0.209,0.214,0.2182,0.2201,0.2213,0.2283,0.2273,0.23,0.2339,0.2372,0.2382,0.2391,0.2412,0.2423,0.23,0.23,0.23,0,0.1782,0.1814,0.1839,0.1869,0.1899,0.1937,0.1972,0.2006,0.2064,0.2097,0.2108,0.2198,0.2213,0.2269,0.2299,0.2302,0.2318,0.2294,0.2382,0.2391,0.2399,0.2419,0.2429,0.2304,0.2303,0.2303,0.2303,0,0.1807,0.1848,0.1869,0.1917,0.195,0.1992,0.2032,0.2083,0.2131,0.2162,0.2246,0.2275,0.2325,0.2344,0.2343,0.2415,0.2408,0.2391,0.2351,0.2415,0.2432,0.2442,0.2309,0.2307,0.2306,0.2306,0,0,0.1805,0.1874,0.1888,0.192,0.1984,0.201,0.2075,0.2135,0.219,0.2251,0.2317,0.2378,0.2406,0.2422,0.2439,0.2469,0.2542,0.2463,0.2463,0.2475,0.262,0.2466,0.2461,0.2547,0.2549,0.2551,0.2611,0,0.1825,0.1885,0.1915,0.1982,0.2014,0.2068,0.2121,0.2184,0.2246,0.2319,0.2365,0.2438,0.2431,0.2476,0.2507,0.2541,0.2571,0.2527,0.2564,0.2565,0.2411,0.2467,0.2557,0.2618,0.262,0.2622,0.2623,0,0.1832,0.1875,0.1943,0.2018,0.204,0.2088,0.2186,0.2239,0.2335,0.2388,0.2461,0.2501,0.2575,0.2557,0.2634,0.2613,0.2626,0.2638,0.264,0.2477,0.2427,0.254,0.264,0.2639,0.2638,0.2636,0.2635,0,0.1806,0.1889,0.1949,0.1976,0.2066,0.2119,0.2175,0.2271,0.233,0.2447,0.2504,0.2582,0.2646,0.2675,0.2706,0.2686,0.2776,0.2743,0.2612,0.2601,0.2695,0.2685,0.2791,0.2791,0.279,0.279,0.279,0,0.1791,0.1839,0.1951,0.1982,0.2058,0.2125,0.2217,0.2287,0.2394,0.2456,0.2547,0.2599,0.2685,0.2738,0.274,0.2705,0.2804,0.2625,0.2607,0.272,0.2712,0.2702,0.2691,0.2793,0.2792,0.2792,0.2791,0,0.1734,0.1812,0.1887,0.2008,0.2049,0.2108,0.2233,0.2285,0.2405,0.2491,0.2535,0.265,0.2707,0.2763,0.2822,0.2738,0.2726,0.269,0.2821,0.2809,0.252,0.2512,0.2534,0.2529,0.2525,0.2522,0.2519,0,0.1695,0.1739,0.1898,0.1945,0.2005,0.21,0.2154,0.2282,0.233,0.2489,0.2509,0.2628,0.2678,0.2629,0.2704,0.2696,0.2664,0.2639,0.2557,0.2513,0.2495,0.2493,0.2491,0.2512,0.2511,0.251,0.2509,0,0.1628,0.172,0.179,0.1891,0.1968,0.203,0.2118,0.2141,0.227,0.2406,0.2417,0.2436,0.2497,0.252,0.2545,0.2531,0.264,0.2594,0.2602,0.2525,0.2486,0.2472,0.2474,0.2494,0.2496,0.2498,0.2498,0,0.1591,0.1626,0.1741,0.1805,0.1897,0.1915,0.1979,0.2015,0.2076,0.2237,0.2239,0.2349,0.2468,0.2436,0.2454,0.2436,0.2386,0.2292,0.2314,0.2331,0.2236,0.2156,0.205,0,0,0,0,0,0.1536,0.1561,0.1627,0.1691,0.1773,0.1819,0.1925,0.1986,0.2114,0.2064,0.2141,0.2176,0.219,0.2255,0.2193,0.2377,0.2409,0.2295,0.2315,0.2413,0.243,0.2336,0,0,0,0,0,0,0.1501,0.1573,0.1589,0.1573,0.1585,0.1648,0.1709,0.1801,0.1777,0.1918,0.1937,0.2046,0.2099,0.2199,0.215,0.2171,0.2138,0.2374,0.2369,0.2404,0.2419,0.2433,0.2342,0,0,0,0,0]},{"header":{"parameterUnit":"m.s-1","parameterCategory":2,"la1":30.2991,"la2":30.254,"lo1":-89.0895,"lo2":-89.0444,"dy":0.0017,"dx":0.0017,"nx":28,"ny":28,"refTime":"2024-10-18T09:00:00:Z","depth":"4","parameterNumber":3,"parameterNumberName":"V-component_of_CURRENTS"},"data":[0,0,0,0,0,0,0,0,0,0,0,0,0,0,0,0,0,0,0,0,0,0,0,0,0,0,0,0,0,0,0,0,0,0,0,0,0,0,0,0,0,0,0,0,0,0,0,0,0,0,0,0,0,0,0,0,0,0,0.0196,0.0195,0,0.0148,0.0147,0.0147,0.0114,0.0114,0.0114,0.0114,0.0047,0.0046,0.0044,0,0,0,0,0,0,0,0,0,0,0,0,0,0.0218,0.0218,0.0196,0.0195,0.0195,0.0148,0.0147,0.0146,0.0114,0.0114,0.0114,0.0114,0.0048,0.0046,0.0044,0,0,0,0,0,0,0,0,0,0,0,0,0,0.0192,0.0218,0.0196,0.0174,0.0171,0.0148,0.0147,0.0146,0.0114,0.0114,0.0114,0.0114,0.0049,0.0046,0.0044,0.0033,0,0,0.0036,0.0035,0,0,0,0,0,0,0,0,0.0194,0.0192,0.0177,0.0175,0.0172,0.0138,0.0131,0.0108,0.0114,0.0135,0.0114,0.0114,0.0077,0.0072,0.0062,0.003,0.0027,0.0036,0.0035,0.0034,0.0033,0,0,0,0,0,0,0,0.0196,0.0193,0.0176,0.0177,0.0174,0.0152,0.0148,0.0126,0.0107,0.0133,0.0131,0.0127,0.0075,0.0065,0.0061,0.0026,0.0036,0.0034,0.0033,0.0032,-0.002,-0.002,0,0,0,0,0,0,0.0206,0.0195,0.0177,0.0174,0.0184,0.0152,0.0148,0.0148,0.0107,0.0101,0.0127,0.0126,0.0069,0.0063,0.0058,0.0055,0.0034,0.0031,0.003,-0.002,-0.002,-0.002,0,0,0,0,0,0,0.0207,0.0205,0.0179,0.0184,0.0179,0.0152,0.0153,0.0147,0.014,0.0103,0.0096,0.0126,0.0069,0.0061,0.0043,0.0052,0.003,0.0028,-0.002,-0.002,-0.002,0.0041,0,0,0,0,0,0,0.0208,0.0206,0.021,0.0185,0.018,0.0173,0.0153,0.0147,0.0138,0.0136,0.01,0.0093,0.0068,0.0047,0.0041,0.0048,0.0026,-0.002,-0.002,-0.002,0.0039,0.0043,0.0047,0,0,0,0,0,0.0209,0.0219,0.0211,0.0209,0.0187,0.0173,0.0168,0.0147,0.0139,0.0139,0.0115,0.0094,0.0044,0.0045,0.0038,0.0044,-0.002,-0.002,-0.002,0.0037,0.0042,0.0046,0,0,0,0,0,0,0.0229,0.0216,0.0207,0.0212,0.0196,0.0168,0.0168,0.0153,0.0134,0.0133,0.0097,0.0088,0.0074,0.005,0.0053,0.0029,0.0008,0.0007,0.0053,0.0058,0.0062,0.0078,0.0024,0,0,0,0,0,0.0237,0.0242,0.0221,0.0226,0.0222,0.0196,0.0188,0.0175,0.0154,0.0146,0.012,0.0092,0.0069,0.0057,0.0032,0.0021,-0.0007,0.0019,0.0023,0.0027,0.0034,-0.0005,-0.0003,-0.0019,-0.0019,-0.0019,0,0,0.0246,0.0239,0.0242,0.023,0.0218,0.022,0.0191,0.0186,0.0187,0.0142,0.0136,0.0106,0.0069,0.0056,0.0047,0.0038,0.0016,0.0027,0.0031,0.0036,-0.0004,-0.0003,-0.0002,-0.0019,-0.0019,-0.0019,0,0,0.0269,0.0262,0.0274,0.0267,0.0255,0.0241,0.0243,0.022,0.0209,0.0197,0.0166,0.0142,0.0107,0.0084,0.0067,0.0077,0.0038,0.0067,0.0102,0.0065,0.0066,0.0066,0.0035,0.0032,0.007,0.007,0.0071,0,0.028,0.0293,0.0275,0.0284,0.0286,0.0255,0.027,0.0254,0.0227,0.0224,0.0205,0.0153,0.0121,0.0105,0.0107,0.0088,0.006,0.0089,0.0071,0.0071,0.007,0.0038,0.0034,0.0073,0.0073,0.0073,0.0072,0,0.0309,0.0321,0.0329,0.0334,0.0332,0.0339,0.032,0.0315,0.0298,0.028,0.0258,0.021,0.0181,0.0164,0.0139,0.0123,0.0103,0.0081,0.0062,0.0076,0.004,0.0035,0.0078,0.0076,0.0076,0.0075,0,0,0.033,0.0347,0.0351,0.0367,0.0361,0.0365,0.0371,0.0367,0.0376,0.0336,0.0336,0.0287,0.0259,0.0237,0.0197,0.0162,0.0134,0.0126,0.0123,0.0102,0.0055,0.0046,0.004,0.0108,0.0107,0.0107,0.0032,0,0.0359,0.0395,0.0394,0.0429,0.0447,0.0431,0.0439,0.0431,0.0416,0.0407,0.0352,0.0336,0.0287,0.0275,0.0232,0.0161,0.0124,0.0157,0.0038,0.0035,0.0032,0.0035,0.0105,0.0028,0.0027,0.0026,0.0026,0,0.0388,0.041,0.0452,0.0484,0.0491,0.0506,0.0523,0.0529,0.0508,0.0495,0.0464,0.0419,0.0369,0.0321,0.0206,0.023,0.0151,0.0088,0.0083,0.0053,0.0018,0.0009,0.0016,0.0017,0.0017,0.0018,0.0019,0,0.0415,0.0453,0.0492,0.0502,0.0527,0.0546,0.056,0.0556,0.0577,0.0553,0.0559,0.0484,0.0453,0.0344,0.0217,0.0211,0.0084,0.0057,-0.0026,-0.0028,-0.0024,-0.0024,-0.0027,-0.0027,-0.0026,-0.0026,-0.0026,0,0.0445,0.048,0.051,0.0532,0.0583,0.0586,0.0637,0.0636,0.0648,0.0676,0.0609,0.0604,0.0456,0.0366,0.024,0.0097,0.01,-0.0017,-0.0047,0.0003,0.0006,-0.0028,-0.0027,-0.0029,-0.0028,-0.0028,-0.0027,0,0.0469,0.0489,0.0539,0.0578,0.0598,0.0635,0.0699,0.0733,0.0735,0.0768,0.0765,0.0696,0.0579,0.0425,0.0248,0.0138,-0.0006,-0.006,0.0015,-0.001,-0.0099,-0.0095,-0.0157,-0.0158,-0.0158,-0.0159,-0.0159,0,0.0486,0.0512,0.0574,0.0611,0.0635,0.0695,0.074,0.0772,0.0814,0.0822,0.0837,0.0748,0.0676,0.0432,0.026,0.0022,-0.002,-0.0098,-0.011,-0.0089,-0.0113,-0.0107,-0.0101,-0.0161,-0.0161,-0.0161,-0.0161,0,0.0513,0.0533,0.0571,0.0646,0.0704,0.0776,0.0841,0.0879,0.0913,0.0922,0.0896,0.077,0.0639,0.0441,0.0258,0.0083,-0.0049,-0.0107,-0.0107,-0.0119,-0.0095,-0.0116,-0.011,-0.0164,-0.0164,-0.0163,-0.0163,0,0.0532,0.0558,0.0605,0.0674,0.0752,0.0825,0.0863,0.0907,0.0947,0.0953,0.0943,0.0799,0.0721,0.0473,0.0304,0.0134,0.0081,0.001,0.0003,0.0004,0.0066,0.012,0.0096,0,0,0,0,0,0.0542,0.057,0.0632,0.0703,0.0784,0.0832,0.0917,0.0948,0.0985,0.0974,0.0961,0.0838,0.0594,0.0497,0.0325,0.0272,0.0041,0.0062,-0.0047,-0.0179,-0.0175,-0.0131,0,0,0,0,0,0,0.0546,0.0598,0.0624,0.0717,0.0771,0.0863,0.0919,0.0946,0.0942,0.0952,0.0834,0.0779,0.0551,0.0692,0.0318,0.0267,0.017,-0.0045,-0.0049,-0.018,-0.0177,-0.0175,-0.0129,0,0,0,0,0]}]]